ICO G1

Last updated on Fri Dec 19 2025 00:02:49 GMT+0000 (Coordinated Universal Time)

1 32763U 08016A 25352.54669019 -.00000152 00000+0 00000+0 0 9990 2 32763 5.4991 36.5638 0002662 220.0579 294.7351 1.00273273 64739
UTC large
Height (km)
Speed (km/s)
/
Latitude / Longitude
Inclination (degrees)
Orbital Period (minutes)
Azimuth
Elevation
Range (km)
Doppler Factor

Next 0 passes for location: London (51.5072 / 0.1276)

Sorry there are no passes over London.